Regional Weather Roundup
Issued by NWS

Home | Current Version | Previous Version | Graphics & Text | Print | Product List | Glossary On
Versions: 1 2 3 4 5 6 7 8 9 10 11 12 13 14 15 16 17 18 19 20 21 22 23 24 25 26 27 28 29 30 31 32 33 34 35 36 37 38 39 40 41 42 43 44 45 46 47 48 49 50
000
ASUS45 KABQ 122010
RWRNM
NEW MEXICO REGIONAL WEATHER ROUNDUP
NATIONAL WEATHER SERVICE ALBUQUERQUE NM
100 PM MST FRI FEB 12 2016

NOTE: "FAIR" MEANS FEW OR NO CLOUDS BELOW 12,000 FEET AGL WITH NO
       SIGNIFICANT WEATHER OR OBSTRUCTIONS TO VISION.

      THIS PRODUCT IS RELEASED AS TWO VERSIONS.  ONE VERSION NEAR
      THE TOP OF THE HOUR CONTAINING PRELIMINARY DATA FROM ALBUQUERQUE
      AND OTHER STATIONS.  A FINAL VERSION WITH ADDITIONAL DATA IS
      ISSUED ABOUT 10 MINUTES AFTER THE HOUR.

NMZ501-503-504-510>518-122100-
NORTHWEST PLATEAU/NORTHCENTRAL MOUNTAINS

CITY           SKY/WX    TMP DP  RH WIND       PRES   REMARKS
FARMINGTON     SUNNY     54  23  30 CALM      30.37F
LOS ALAMOS     SUNNY     56  19  23 E3        30.40F
SANTA FE       SUNNY     60  16  18 VRB6      30.35F
TAOS           SUNNY     52  21  30 N8        30.40F
ANGEL FIRE     FAIR      41  25  53 CALM      30.41F

$$
NMZ402-403-502-505>509-122100-
WESTCENTRAL MOUNTAINS/SOUTHWEST MOUNTAINS

CITY           SKY/WX    TMP DP  RH WIND       PRES   REMARKS
GALLUP         SUNNY     62  15  16 NE5       30.38F
GRANTS         SUNNY     65   8  11 NW6       30.38F
SILVER CITY      N/A     68  10  10 SE3       30.34F

$$
NMZ407-409-411-412-122100-
SOUTHERN DESERTS

CITY           SKY/WX    TMP DP  RH WIND       PRES   REMARKS
LORDSBURG      FAIR      72  18  13 SE8       30.28F
DEMING         SUNNY     72  13  10 VRB5      30.29F
LAS CRUCES     SUNNY     69  15  12 CALM      30.31F
HOLLOMAN AFB   SUNNY     70   9   9 W3        30.26F
ALAMOGORDO     SUNNY     70  10  10 CALM      30.28F
T OR C         SUNNY     68  12  11 N5        30.30F

$$
NMZ519>523-122100-
CENTRAL VALLEYS/CENTRAL HIGHLANDS

CITY           SKY/WX    TMP DP  RH WIND       PRES   REMARKS
ALBUQUERQUE    SUNNY     62  18  18 N6        30.34F
DOUBLE EAGLE   SUNNY     63  19  19 VRB3      30.35F
MORIARTY ARPT  FAIR      63  13  14 N7        30.35F
CLINES CORNERS SUNNY     59  15  18 W3        30.36F
BELEN          FAIR      63  13  14 E5        30.35F
SOCORRO        FAIR      64  15  15 N10G16    30.32F

$$
NMZ524>526-539-540-122100-
SOUTHCENTRAL MOUNTAINS

CITY           SKY/WX    TMP DP  RH WIND       PRES   REMARKS
RUIDOSO        SUNNY     64   9  11 SE8       30.37F

$$
NMZ527>531-122100-
NORTHEAST HIGHLANDS/NORTHEAST PLAINS

CITY           SKY/WX    TMP DP  RH WIND       PRES   REMARKS
LAS VEGAS      SUNNY     57  20  23 S10G16    30.36F
RATON          SUNNY     57  19  22 SW8       30.34F
CLAYTON        SUNNY     61  23  23 SE13G18   30.32F

$$
NMZ532>537-122100-
EASTCENTRAL PLAINS

CITY           SKY/WX    TMP DP  RH WIND       PRES   REMARKS
TUCUMCARI      SUNNY     64  24  21 SE7       30.30F
CANNON AFB     SUNNY     64  26  23 SE15G22   30.28F
CLOVIS AIRPORT SUNNY     66  27  22 SE15      30.30F

$$
NMZ028-029-538-122100-
SOUTHEAST PLAINS

CITY           SKY/WX    TMP DP  RH WIND       PRES   REMARKS
ROSWELL        SUNNY     66  22  18 N8        30.27F
ARTESIA        SUNNY     64  27  24 N8G15     30.28F
CARLSBAD       SUNNY     67  26  21 N8        30.27F
HOBBS          SUNNY     70  21  16 SE10      30.27F


$$



USA.gov is the U.S. government's official web portal to all federal, state and local government web resources and services.